Lexington Weather

Lexington, Massachusetts, USA

53°F
10/20/2019 8:22pm 
  • Lexington Conditions: Mostly cloudy
  • Temperature: 53.1°F / 11.7°CColder 0.9°F than last hour.
  • Dew Point: 48.4°FIncreased 0.4°Fsince last hour.
  • Relative Humidity: 84%Increased 4.0% since last hour.
  • Wind: Calm, 10-min avg: Calm, gust: None
  • Barometer: 30.02 in Steady
  • Visibility: 10 miles
  • Rain Today: 0.00 in
  •   

Regional Weather Roundup
for Boston, MA

        
000
ASUS41 KBOX 181310
RWRBOX

REGIONAL WEATHER ROUNDUP
NATIONAL WEATHER SERVICE BOSTON/NORTON MA
900 AM EDT FRI OCT 18 2019

NOTE:  "FAIR" INDICATES FEW OR NO CLOUDS BELOW 12,000 FEET WITH NO 
SIGNIFICANT WEATHER AND/OR OBSTRUCTIONS TO VISIBILITY.

MAZALL-181400-
EASTERN MASSACHUSETTS
  
CITY           SKY/WX    TMP DP  RH WIND       PRES   REMARKS
BOSTON         PTSUNNY   54  40  59 W15       29.65R                  
BEVERLY        CLOUDY    52  41  66 W10       29.63R                  
LAWRENCE       CLOUDY    51  40  65 W10       29.65R                  
BEDFORD        CLOUDY    53  39  59 W9        29.64R                  
BLUE HILL      NOT AVBL                                               
NORWOOD        CLOUDY    54  40  59 W9        29.66R                  
MARSHFIELD     PTSUNNY   54  43  66 W9G15     29.65R                  
PLYMOUTH       FAIR      51  41  68 W14G22    29.66R                  
TAUNTON        CLOUDY    52  41  66 W9        29.67R                  
NEW BEDFORD    FAIR      53  40  61 W16         N/A                   
$$

MAZALL-181400-
CAPE COD AND THE ISLANDS
  
CITY           SKY/WX    TMP DP  RH WIND       PRES   REMARKS
FALMOUTH       SUNNY     54  41  62 W17G24    29.65R                  
HYANNIS        FAIR      54  41  61 W12G21    29.63R                  
CHATHAM        NOT AVBL                                               
PROVINCETOWN   PTSUNNY   53  44  71 NW21G26     N/A                   
NANTUCKET      FAIR      54  43  66 W17       29.66R                  
MARTHAS VNYRD  FAIR      54  41  61 W15G25    29.67R                  
$$
 
MAZALL-181400-
CENTRAL AND WESTERN MASSACHUSETTS
  
CITY           SKY/WX    TMP DP  RH WIND       PRES   REMARKS
WORCESTER      PTSUNNY   47  39  74 W15G24    29.67R                  
FITCHBURG      CLOUDY    50  38  63 NW8       29.67R                  
ORANGE         CLOUDY    49  39  68 VRB7      29.69R                  
SPRINGFIELD    PTSUNNY   50  38  63 W15       29.71R                  
WESTFIELD      CLOUDY    50  37  61 NW14G21   29.73R                  
NORTH ADAMS    CLOUDY    46  37  71 W22G28    29.73R                  
PITTSFIELD     PTSUNNY   44  36  73 W15G28    29.72R                  
$$
 
RIZALL-181400-
RHODE ISLAND
  
CITY           SKY/WX    TMP DP  RH WIND       PRES   REMARKS
PROVIDENCE     FAIR      52  41  66 W10       29.70R                  
NEWPORT        FAIR      52  40  63 W10G20    29.69R                  
BLOCK ISLAND   FAIR      53  39  59 NW13G23   29.73R                  
SMITHFIELD     FAIR     N/A N/A N/A W8G18     29.69R                  
WESTERLY       PTSUNNY   55  41  59 NW9G16    29.72R                  
$$
 
CTZALL-181400-
CONNECTICUT
  
CITY           SKY/WX    TMP DP  RH WIND       PRES   REMARKS
BRADLEY INTL   PTSUNNY   52  38  58 NW13      29.74R                  
HARTFORD       CLOUDY    51  38  60 NW16G22   29.75R                  
BRIDGEPORT     FAIR      52  40  63 W9        29.76R                  
DANBURY        FAIR      50  38  63 NW8       29.78R                  
GROTON         CLOUDY    54  40  59 W15G25    29.72R                  
NEW HAVEN      FAIR      54  42  64 NW9       29.76R                  
CHESTER        PTSUNNY   52  39  62 VRB7G21   29.73R                  
MERIDEN        CLOUDY    52  39  61 NW10      29.75R                  
WILLIMANTIC    CLOUDY    50  39  66 VRB6      29.73R                  
OXFORD         FAIR      49  40  71 NW9       29.76R                  
$$

MEZ002-015-021-024-NHZ003-005-008-011-012-014-VTZ005-008-181400-
NORTHERN NEW ENGLAND
  
CITY           SKY/WX    TMP DP  RH WIND       PRES   REMARKS
PORTLAND ME    PTSUNNY   52  39  61 VRB5      29.56R                  
BANGOR ME      PTSUNNY   46  38  73 W6        29.49R                  
CONCORD NH     CLOUDY    50  38  63 NW16G24   29.62R                  
MANCHESTER NH  CLOUDY    51  38  60 VRB7      29.63R                  
NASHUA NH      CLOUDY    51  41  68 W13       29.65R                  
PORTSMOUTH NH  MOSUNNY   52  40  63 W9        29.58                   
JAFFREY NH     CLOUDY    47  38  71 W7        29.66R                  
KEENE NH       CLOUDY    48  39  71 NW9       29.68R                  
BURLINGTON VT  CLOUDY    47  38  71 NW14G22   29.72R                  
MT. WASHINGTON SNOWSHWR  25  25 100 NW68G98     N/A  VSB 0   WCI   2  
$$

NYZ052-076-181400-
EASTERN NEW YORK
  
CITY           SKY/WX    TMP DP  RH WIND       PRES   REMARKS
ALBANY         PTSUNNY   49  38  65 W10       29.80R                  
NEW YORK CITY  PTSUNNY   52  39  61 NW21G30   29.81R                  
$$
 
ANZALL-181400-
MARINE OBSERVATIONS
  
STATION/POSITION TIME  TEMP    WIND        PRES    VSBY  WAVE
                       AIR SEA DIR/SP/G                  HT/PER
                 (UTC) (F)     (DEG/KT/KT) (MB)    (MI)  (FT/S)
BOSTON BUOY      1250   52 57  290/ 17/ 21 1002.7R         3/11
BUZZARDS BAY     1200   52     280/ 23/ 27 1004.9R
NANTUCKET SOUND  1240      56                N/A
MASS BAY-STELLWA 1204   52 56  280/ 19/ 23 1001.5R  1 7/8  2/ 3
ISLE OF SHOALS   1200   49     280/ 20/ 22 1000.7R
S OF BLOCK IS    1300      61                N/A           8/ 8
$$

......................KEY.........................
  SKY/WX - SKY CONDITION/PRESENT WEATHER
  TMP    - TEMPERATURE IN FAHRENHEIT
  DWPT   - DEWPOINT IN FAHRENHEIT
  RH     - RELATIVE HUMIDITY IN PERCENT
  WIND   - DIRECTION AND SPEED IN MPH
  PRES   - MEAN SEA LEVEL PRESSURE IN INCHES OF HG
  WCI    - WIND CHILL INDEX
  VSB    - VISIBILITY IN MILES
  HX     - HEAT INDEX
  TC     - TEMPERATURE IN CELSIUS
  VRB    - VARIABLE WIND DIRECTION
  N/A    - NOT AVAILABLE
  
      

Other recent Regional Weather Roundups

Sun Oct 20, 8:10pm

Sun Oct 20, 8:00pm

Sun Oct 20, 7:10pm

Sun Oct 20, 7:01pm

Sun Oct 20, 6:10pm

Sun Oct 20, 6:00pm

Sun Oct 20, 5:10pm

Sun Oct 20, 5:00pm

Sun Oct 20, 4:10pm

Sun Oct 20, 4:00pm

Sun Oct 20, 3:10pm

Sun Oct 20, 3:00pm

Sun Oct 20, 2:10pm

Sun Oct 20, 2:01pm

Sun Oct 20, 1:10pm

Sun Oct 20, 1:01pm

Sun Oct 20, 12:10pm

Sun Oct 20, 12:00pm

Sun Oct 20, 11:10am

Sun Oct 20, 11:00am

Sun Oct 20, 10:10am

Sun Oct 20, 10:00am

Sun Oct 20, 9:10am

Sun Oct 20, 9:00am

Sun Oct 20, 8:10am

Sun Oct 20, 8:00am

Sun Oct 20, 7:10am

Sun Oct 20, 7:00am

Sun Oct 20, 6:10am

Sun Oct 20, 6:00am

Sun Oct 20, 5:10am

Sun Oct 20, 5:00am

Sun Oct 20, 4:10am

Sun Oct 20, 4:00am

Sun Oct 20, 3:10am

Sun Oct 20, 3:00am

Sun Oct 20, 2:10am

Sun Oct 20, 2:00am

Sun Oct 20, 1:10am

Sun Oct 20, 1:00am

Sun Oct 20, 12:10am

Sun Oct 20, 12:00am

Sat Oct 19, 11:10pm

Sat Oct 19, 11:00pm

Sat Oct 19, 10:10pm

Sat Oct 19, 10:00pm

Sat Oct 19, 9:10pm

Sat Oct 19, 9:00pm

Sat Oct 19, 8:10pm

Sat Oct 19, 8:00pm

Sat Oct 19, 7:10pm

Sat Oct 19, 7:00pm

Sat Oct 19, 6:10pm

Sat Oct 19, 6:00pm

Sat Oct 19, 5:10pm

Sat Oct 19, 5:00pm

Sat Oct 19, 4:10pm

Sat Oct 19, 4:00pm

Sat Oct 19, 3:10pm

Sat Oct 19, 3:01pm

Sat Oct 19, 2:10pm

Sat Oct 19, 2:00pm

Sat Oct 19, 1:10pm

Sat Oct 19, 1:01pm

Sat Oct 19, 12:10pm

Sat Oct 19, 12:00pm

Sat Oct 19, 11:10am

Sat Oct 19, 11:01am

Sat Oct 19, 10:10am

Sat Oct 19, 10:00am

Sat Oct 19, 9:10am

Sat Oct 19, 9:00am

Sat Oct 19, 8:10am

Sat Oct 19, 8:00am

Sat Oct 19, 7:10am

Sat Oct 19, 7:00am

Sat Oct 19, 6:10am

Sat Oct 19, 6:00am

Sat Oct 19, 5:10am

Sat Oct 19, 5:00am

Sat Oct 19, 4:10am

Sat Oct 19, 4:00am

Sat Oct 19, 3:10am

Sat Oct 19, 3:00am

Sat Oct 19, 2:10am

Sat Oct 19, 2:00am

Sat Oct 19, 1:10am

Sat Oct 19, 1:00am

Sat Oct 19, 12:10am

Sat Oct 19, 12:00am

Fri Oct 18, 11:10pm

Fri Oct 18, 11:01pm

Fri Oct 18, 10:10pm

Fri Oct 18, 10:00pm

Fri Oct 18, 9:10pm

Fri Oct 18, 9:00pm

Fri Oct 18, 8:10pm

Fri Oct 18, 8:00pm

Fri Oct 18, 7:10pm

Fri Oct 18, 7:00pm

Fri Oct 18, 6:10pm

Fri Oct 18, 6:01pm

Fri Oct 18, 5:10pm

Fri Oct 18, 5:00pm

Fri Oct 18, 4:10pm

Fri Oct 18, 4:00pm

Fri Oct 18, 3:10pm

Fri Oct 18, 3:01pm

Fri Oct 18, 2:10pm

Fri Oct 18, 2:00pm

Fri Oct 18, 1:10pm

Fri Oct 18, 1:01pm

Fri Oct 18, 12:10pm

Fri Oct 18, 12:00pm

Fri Oct 18, 11:10am

Fri Oct 18, 11:00am

Fri Oct 18, 10:10am

Fri Oct 18, 10:00am

Fri Oct 18, 9:00am

Fri Oct 18, 8:10am

Fri Oct 18, 8:00am

Fri Oct 18, 7:10am

Fri Oct 18, 7:00am

Fri Oct 18, 6:10am

Fri Oct 18, 6:00am

Fri Oct 18, 5:10am

Fri Oct 18, 5:00am

Fri Oct 18, 4:10am

Fri Oct 18, 4:00am

Fri Oct 18, 3:10am

Fri Oct 18, 3:00am

Fri Oct 18, 2:10am

Fri Oct 18, 2:00am

Fri Oct 18, 1:10am

Fri Oct 18, 1:00am

Fri Oct 18, 12:10am

Fri Oct 18, 12:00am

Thu Oct 17, 11:10pm

Thu Oct 17, 11:00pm

Thu Oct 17, 10:10pm

Thu Oct 17, 10:00pm

Thu Oct 17, 9:10pm

Thu Oct 17, 9:00pm

Meta data:

ID: cb52f1f4-537a-4941-bf97-6aea6325ca9c
Link: https://api.weather.gov/products/cb52f1f4-537a-4941-bf97-6aea6325ca9c